Time,TemperatureF,DewpointF,PressureIn,WindDirection,WindDirectionDegrees,WindSpeedMPH,WindSpeedGustMPH,Humidity,HourlyPrecipIn,Conditions,Clouds,dailyrainin,SoftwareType,DateUTC
2013-07-25 00:02:00,70.9,47.2,30.16,SE,135,0.0,0.0,43,0.00,,,0.00,WUHU21623XXSP,2013-07-25 07:02:00,
2013-07-25 00:07:00,70.7,47.0,30.16,SSE,157,0.0,0.0,43,0.00,,,0.00,WUHU21623XXSP,2013-07-25 07:07:00,
2013-07-25 00:12:00,70.5,46.9,30.16,SSE,157,0.0,0.0,43,0.00,,,0.00,WUHU21623XXSP,2013-07-25 07:12:00,
2013-07-25 00:17:00,70.0,46.5,30.16,SE,135,0.0,0.0,43,0.00,,,0.00,WUHU21623XXSP,2013-07-25 07:17:00,
2013-07-25 00:22:00,69.8,46.2,30.16,SE,135,0.0,0.0,43,0.00,,,0.00,WUHU21623XXSP,2013-07-25 07:22:00,
2013-07-25 00:30:00,69.3,46.3,30.16,SSE,157,0.0,0.0,44,0.00,,,0.00,WUHU21623XXSP,2013-07-25 07:30:00,
2013-07-25 00:35:00,68.9,46.1,30.16,SE,135,0.0,0.0,44,0.00,,,0.00,WUHU21623XXSP,2013-07-25 07:35:00,
2013-07-25 00:40:00,68.7,45.8,30.15,South,180,0.0,0.0,44,0.00,,,0.00,WUHU21623XXSP,2013-07-25 07:40:00,
2013-07-25 00:45:00,68.7,46.4,30.16,NW,315,0.0,0.0,45,0.00,,,0.00,WUHU21623XXSP,2013-07-25 07:45:00,
2013-07-25 00:51:00,68.5,46.3,30.16,NW,315,0.0,0.0,45,0.00,,,0.00,WUHU21623XXSP,2013-07-25 07:51:00,
2013-07-25 00:56:00,68.5,46.3,30.16,WNW,292,0.0,0.0,45,0.00,,,0.00,WUHU21623XXSP,2013-07-25 07:56:00,
2013-07-25 01:01:00,68.4,46.1,30.16,WNW,292,0.0,0.0,45,0.00,,,0.00,WUHU21623XXSP,2013-07-25 08:01:00,
2013-07-25 01:06:00,68.2,45.9,30.16,NNW,337,0.0,0.0,45,0.00,,,0.00,WUHU21623XXSP,2013-07-25 08:06:00,
2013-07-25 01:11:00,68.2,45.9,30.16,NNW,337,0.0,0.0,45,0.00,,,0.00,WUHU21623XXSP,2013-07-25 08:11:00,
2013-07-25 01:17:00,67.8,45.6,30.16,North,0,0.0,0.0,45,0.00,,,0.00,WUHU21623XXSP,2013-07-25 08:17:00,
2013-07-25 01:22:00,67.6,46.0,30.17,SSE,157,0.0,0.0,46,0.00,,,0.00,WUHU21623XXSP,2013-07-25 08:22:00,
2013-07-25 01:27:00,67.3,45.7,30.16,SSE,157,0.0,0.0,46,0.00,,,0.00,WUHU21623XXSP,2013-07-25 08:27:00,
2013-07-25 01:32:00,66.9,45.4,30.17,WNW,292,0.0,0.0,46,0.00,,,0.00,WUHU21623XXSP,2013-07-25 08:32:00,
2013-07-25 01:37:00,66.6,45.2,30.17,WNW,292,0.0,0.0,46,0.00,,,0.00,WUHU21623XXSP,2013-07-25 08:37:00,
2013-07-25 01:42:00,66.4,45.5,30.17,WNW,292,0.0,0.0,47,0.00,,,0.00,WUHU21623XXSP,2013-07-25 08:42:00,
2013-07-25 01:47:00,66.0,45.2,30.17,WNW,292,0.0,0.0,47,0.00,,,0.00,WUHU21623XXSP,2013-07-25 08:47:00,
2013-07-25 01:52:00,65.8,45.0,30.17,North,0,0.0,0.0,47,0.00,,,0.00,WUHU21623XXSP,2013-07-25 08:52:00,
2013-07-25 01:57:00,65.7,44.8,30.17,North,0,0.0,0.0,47,0.00,,,0.00,WUHU21623XXSP,2013-07-25 08:57:00,
2013-07-25 02:02:00,65.5,45.2,30.17,North,0,0.0,0.0,48,0.00,,,0.00,WUHU21623XXSP,2013-07-25 09:02:00,
2013-07-25 02:07:00,65.1,44.9,30.17,NNE,22,0.0,0.0,48,0.00,,,0.00,WUHU21623XXSP,2013-07-25 09:07:00,
2013-07-25 02:12:00,65.1,44.9,30.17,NNE,22,0.0,0.0,48,0.00,,,0.00,WUHU21623XXSP,2013-07-25 09:12:00,
2013-07-25 02:17:00,64.9,44.7,30.17,NNE,22,0.0,0.0,48,0.00,,,0.00,WUHU21623XXSP,2013-07-25 09:17:00,
2013-07-25 02:22:00,64.6,44.9,30.17,NNE,22,0.0,0.0,49,0.00,,,0.00,WUHU21623XXSP,2013-07-25 09:22:00,
2013-07-25 02:28:00,64.6,44.9,30.17,NNE,22,0.0,0.0,49,0.00,,,0.00,WUHU21623XXSP,2013-07-25 09:28:00,
2013-07-25 02:33:00,64.6,44.9,30.17,NNE,22,0.0,0.0,49,0.00,,,0.00,WUHU21623XXSP,2013-07-25 09:33:00,
2013-07-25 02:38:00,64.2,44.6,30.17,NNW,337,0.0,0.0,49,0.00,,,0.00,WUHU21623XXSP,2013-07-25 09:38:00,
2013-07-25 02:44:00,64.2,44.6,30.17,WNW,292,0.0,0.0,49,0.00,,,0.00,WUHU21623XXSP,2013-07-25 09:44:00,
2013-07-25 02:49:00,64.2,44.6,30.16,WNW,292,0.0,0.0,49,0.00,,,0.00,WUHU21623XXSP,2013-07-25 09:49:00,
2013-07-25 02:54:00,64.0,44.6,30.17,SSW,202,0.0,0.0,49,0.00,,,0.00,WUHU21623XXSP,2013-07-25 09:54:00,
2013-07-25 02:59:00,64.0,44.4,30.17,South,180,0.0,0.0,49,0.00,,,0.00,WUHU21623XXSP,2013-07-25 09:59:00,
2013-07-25 03:04:00,63.7,44.7,30.17,SW,225,0.0,0.0,50,0.00,,,0.00,WUHU21623XXSP,2013-07-25 10:04:00,
2013-07-25 03:09:00,63.7,44.7,30.16,SW,225,0.0,0.0,50,0.00,,,0.00,WUHU21623XXSP,2013-07-25 10:09:00,
2013-07-25 03:14:00,63.3,44.3,30.17,SW,225,0.0,0.0,50,0.00,,,0.00,WUHU21623XXSP,2013-07-25 10:14:00,
2013-07-25 03:23:00,63.1,44.2,30.17,South,180,0.0,0.0,50,0.00,,,0.00,WUHU21623XXSP,2013-07-25 10:23:00,
2013-07-25 03:28:00,63.0,44.5,30.17,SSE,157,0.0,0.0,51,0.00,,,0.00,WUHU21623XXSP,2013-07-25 10:28:00,
2013-07-25 03:33:00,62.8,44.3,30.17,SSE,157,0.0,0.0,51,0.00,,,0.00,WUHU21623XXSP,2013-07-25 10:33:00,
2013-07-25 03:38:00,62.6,44.2,30.17,SSE,157,0.0,0.0,51,0.00,,,0.00,WUHU21623XXSP,2013-07-25 10:38:00,
2013-07-25 03:43:00,62.4,43.5,30.17,SSE,157,0.0,0.0,50,0.00,,,0.00,WUHU21623XXSP,2013-07-25 10:43:00,
2013-07-25 03:49:00,62.1,43.9,30.17,South,180,0.0,0.0,51,0.00,,,0.00,WUHU21623XXSP,2013-07-25 10:49:00,
2013-07-25 03:54:00,62.1,43.7,30.17,South,180,0.0,0.0,51,0.00,,,0.00,WUHU21623XXSP,2013-07-25 10:54:00,
2013-07-25 03:59:00,61.9,43.5,30.17,SW,225,0.0,0.0,51,0.00,,,0.00,WUHU21623XXSP,2013-07-25 10:59:00,
2013-07-25 04:04:00,61.7,43.4,30.17,SE,135,0.0,0.0,51,0.00,,,0.00,WUHU21623XXSP,2013-07-25 11:04:00,
2013-07-25 04:09:00,61.5,43.7,30.17,SSW,202,0.0,0.0,52,0.00,,,0.00,WUHU21623XXSP,2013-07-25 11:09:00,
2013-07-25 04:14:00,61.5,43.7,30.17,SSW,202,0.0,0.0,52,0.00,,,0.00,WUHU21623XXSP,2013-07-25 11:14:00,
2013-07-25 04:21:00,61.2,43.4,30.17,SW,225,0.0,0.0,52,0.00,,,0.00,WUHU21623XXSP,2013-07-25 11:21:00,
2013-07-25 04:28:00,61.2,43.4,30.17,SW,225,0.0,0.0,53,0.00,,,0.00,WUHU21623XXSP,2013-07-25 11:28:00,
2013-07-25 04:33:00,61.0,43.7,30.18,SW,225,0.0,0.0,53,0.00,,,0.00,WUHU21623XXSP,2013-07-25 11:33:00,
2013-07-25 04:38:00,60.6,43.4,30.18,SW,225,0.0,0.0,53,0.00,,,0.00,WUHU21623XXSP,2013-07-25 11:38:00,
2013-07-25 04:43:00,60.6,43.4,30.18,SW,225,0.0,0.0,53,0.00,,,0.00,WUHU21623XXSP,2013-07-25 11:43:00,
2013-07-25 04:48:00,60.4,43.2,30.18,SW,225,0.0,0.0,53,0.00,,,0.00,WUHU21623XXSP,2013-07-25 11:48:00,
2013-07-25 04:53:00,60.1,43.3,30.18,SSE,157,0.0,0.0,54,0.00,,,0.00,WUHU21623XXSP,2013-07-25 11:53:00,
2013-07-25 04:58:00,60.1,43.3,30.18,SSE,157,0.0,0.0,54,0.00,,,0.00,WUHU21623XXSP,2013-07-25 11:58:00,
2013-07-25 05:03:00,59.7,43.0,30.18,SSE,157,0.0,0.0,54,0.00,,,0.00,WUHU21623XXSP,2013-07-25 12:03:00,
2013-07-25 05:08:00,59.5,42.8,30.18,SSE,157,0.0,0.0,54,0.00,,,0.00,WUHU21623XXSP,2013-07-25 12:08:00,
2013-07-25 05:13:00,59.5,42.8,30.18,SSE,157,0.0,0.0,54,0.00,,,0.00,WUHU21623XXSP,2013-07-25 12:13:00,
2013-07-25 05:18:00,59.5,42.8,30.18,SSE,157,0.0,0.0,54,0.00,,,0.00,WUHU21623XXSP,2013-07-25 12:18:00,
2013-07-25 05:28:00,59.2,43.0,30.18,NE,45,0.0,0.0,55,0.00,,,0.00,WUHU21623XXSP,2013-07-25 12:28:00,
2013-07-25 05:33:00,59.2,43.0,30.18,South,180,0.0,0.0,55,0.00,,,0.00,WUHU21623XXSP,2013-07-25 12:33:00,
2013-07-25 05:38:00,59.0,42.8,30.18,South,180,0.0,0.0,55,0.00,,,0.00,WUHU21623XXSP,2013-07-25 12:38:00,
2013-07-25 05:43:00,58.8,42.6,30.19,SSE,157,0.0,0.0,55,0.00,,,0.00,WUHU21623XXSP,2013-07-25 12:43:00,
2013-07-25 05:48:00,58.8,42.6,30.18,SSW,202,0.0,0.0,55,0.00,,,0.00,WUHU21623XXSP,2013-07-25 12:48:00,
2013-07-25 05:53:00,58.8,43.1,30.19,SSW,202,0.0,0.0,56,0.00,,,0.00,WUHU21623XXSP,2013-07-25 12:53:00,
2013-07-25 05:58:00,58.6,42.9,30.19,SSW,202,0.0,0.0,56,0.00,,,0.00,WUHU21623XXSP,2013-07-25 12:58:00,
2013-07-25 06:03:00,58.6,42.9,30.19,SSW,202,0.0,0.0,56,0.00,,,0.00,WUHU21623XXSP,2013-07-25 13:03:00,
2013-07-25 06:08:00,58.3,42.8,30.19,SSW,202,0.0,0.0,56,0.00,,,0.00,WUHU21623XXSP,2013-07-25 13:08:00,
2013-07-25 06:13:00,58.3,42.6,30.19,SSW,202,0.0,0.0,56,0.00,,,0.00,WUHU21623XXSP,2013-07-25 13:13:00,
2013-07-25 06:18:00,58.1,42.9,30.19,WNW,292,0.0,0.0,57,0.00,,,0.00,WUHU21623XXSP,2013-07-25 13:18:00,
2013-07-25 06:23:00,58.1,42.9,30.19,WNW,292,0.0,0.0,57,0.00,,,0.00,WUHU21623XXSP,2013-07-25 13:23:00,
2013-07-25 06:30:00,58.1,42.9,30.19,WNW,292,0.0,0.0,57,0.00,,,0.00,WUHU21623XXSP,2013-07-25 13:30:00,
2013-07-25 06:35:00,57.9,42.8,30.19,WNW,292,0.0,0.0,57,0.00,,,0.00,WUHU21623XXSP,2013-07-25 13:35:00,
2013-07-25 06:43:00,58.3,43.6,30.19,NW,315,0.0,0.0,58,0.00,,,0.00,WUHU21623XXSP,2013-07-25 13:43:00,
2013-07-25 06:48:00,58.3,43.6,30.19,NW,315,0.0,0.0,58,0.00,,,0.00,WUHU21623XXSP,2013-07-25 13:48:00,
2013-07-25 06:53:00,58.6,43.9,30.20,NW,315,0.0,0.0,58,0.00,,,0.00,WUHU21623XXSP,2013-07-25 13:53:00,
2013-07-25 06:58:00,58.6,43.9,30.20,NW,315,0.0,0.0,58,0.00,,,0.00,WUHU21623XXSP,2013-07-25 13:58:00,
2013-07-25 07:03:00,58.8,44.0,30.20,South,180,0.0,0.0,58,0.00,,,0.00,WUHU21623XXSP,2013-07-25 14:03:00,
2013-07-25 07:10:00,59.2,44.8,30.20,SW,225,0.0,0.0,59,0.00,,,0.00,WUHU21623XXSP,2013-07-25 14:10:00,
2013-07-25 07:17:00,59.7,45.2,30.20,SW,225,0.0,0.0,59,0.00,,,0.00,WUHU21623XXSP,2013-07-25 14:17:00,
2013-07-25 07:22:00,59.7,45.4,30.20,SW,225,0.0,0.0,59,0.00,,,0.00,WUHU21623XXSP,2013-07-25 14:22:00,
2013-07-25 07:27:00,60.1,45.7,30.20,SW,225,0.0,0.0,59,0.00,,,0.00,WUHU21623XXSP,2013-07-25 14:27:00,
2013-07-25 07:32:00,60.4,45.7,30.20,SSE,157,0.0,0.0,59,0.00,,,0.00,WUHU21623XXSP,2013-07-25 14:32:00,
2013-07-25 07:37:00,60.6,46.3,30.20,South,180,0.0,0.0,59,0.00,,,0.00,WUHU21623XXSP,2013-07-25 14:37:00,
2013-07-25 07:42:00,60.6,45.8,30.21,South,180,0.0,0.0,58,0.00,,,0.00,WUHU21623XXSP,2013-07-25 14:42:00,
2013-07-25 07:47:00,61.2,46.3,30.21,SSW,202,0.0,0.0,58,0.00,,,0.00,WUHU21623XXSP,2013-07-25 14:47:00,
2013-07-25 07:52:00,61.5,46.6,30.21,SSW,202,0.0,0.0,58,0.00,,,0.00,WUHU21623XXSP,2013-07-25 14:52:00,
2013-07-25 07:57:00,61.7,46.8,30.21,NW,315,0.0,0.0,58,0.00,,,0.00,WUHU21623XXSP,2013-07-25 14:57:00,
2013-07-25 08:02:00,62.4,47.3,30.21,NW,315,0.0,0.0,58,0.00,,,0.00,WUHU21623XXSP,2013-07-25 15:02:00,
2013-07-25 08:08:00,62.8,47.8,30.21,South,180,0.0,0.0,58,0.00,,,0.00,WUHU21623XXSP,2013-07-25 15:08:00,
2013-07-25 08:13:00,63.1,47.6,30.21,NW,315,0.0,0.0,57,0.00,,,0.00,WUHU21623XXSP,2013-07-25 15:13:00,
2013-07-25 08:19:00,63.7,48.1,30.21,South,180,0.0,0.0,57,0.00,,,0.00,WUHU21623XXSP,2013-07-25 15:19:00,
2013-07-25 08:24:00,63.9,48.2,30.21,SSE,157,0.0,0.0,57,0.00,,,0.00,WUHU21623XXSP,2013-07-25 15:24:00,
2013-07-25 08:29:00,64.8,49.1,30.21,SE,135,0.0,0.0,57,0.00,,,0.00,WUHU21623XXSP,2013-07-25 15:29:00,
2013-07-25 08:36:00,65.5,49.8,30.21,SSE,157,0.7,0.7,57,0.00,,,0.00,WUHU21623XXSP,2013-07-25 15:36:00,
2013-07-25 08:41:00,65.7,49.5,30.21,SSW,202,0.0,0.7,56,0.00,,,0.00,WUHU21623XXSP,2013-07-25 15:41:00,
2013-07-25 08:47:00,66.6,50.4,30.21,SSE,157,0.0,0.0,56,0.00,,,0.00,WUHU21623XXSP,2013-07-25 15:47:00,
2013-07-25 08:52:00,67.1,50.0,30.21,South,180,0.0,0.0,55,0.00,,,0.00,WUHU21623XXSP,2013-07-25 15:52:00,
2013-07-25 08:57:00,67.6,50.8,30.21,South,180,0.0,0.0,55,0.00,,,0.00,WUHU21623XXSP,2013-07-25 15:57:00,
2013-07-25 09:02:00,68.2,50.7,30.21,SE,135,0.0,0.0,54,0.00,,,0.00,WUHU21623XXSP,2013-07-25 16:02:00,
2013-07-25 09:07:00,68.5,51.2,30.21,South,180,0.9,0.9,54,0.00,,,0.00,WUHU21623XXSP,2013-07-25 16:07:00,
2013-07-25 09:12:00,69.1,51.7,30.21,SE,135,0.0,0.9,54,0.00,,,0.00,WUHU21623XXSP,2013-07-25 16:12:00,
2013-07-25 09:19:00,69.6,51.7,30.21,SSE,157,0.0,0.0,53,0.00,,,0.00,WUHU21623XXSP,2013-07-25 16:19:00,
2013-07-25 09:24:00,70.2,52.0,30.21,ESE,112,0.0,0.0,53,0.00,,,0.00,WUHU21623XXSP,2013-07-25 16:24:00,
2013-07-25 09:29:00,70.7,52.2,30.21,ESE,112,0.0,0.0,52,0.00,,,0.00,WUHU21623XXSP,2013-07-25 16:29:00,
2013-07-25 09:34:00,70.9,52.3,30.21,ESE,112,0.0,0.0,52,0.00,,,0.00,WUHU21623XXSP,2013-07-25 16:34:00,
2013-07-25 09:40:00,71.8,52.6,30.20,SE,135,0.0,0.0,51,0.00,,,0.00,WUHU21623XXSP,2013-07-25 16:40:00,
2013-07-25 09:45:00,71.8,52.6,30.20,SSW,202,2.2,2.2,51,0.00,,,0.00,WUHU21623XXSP,2013-07-25 16:45:00,
2013-07-25 09:51:00,72.9,53.0,30.20,SSE,157,0.0,2.2,50,0.00,,,0.00,WUHU21623XXSP,2013-07-25 16:51:00,
2013-07-25 09:56:00,73.0,53.3,30.20,East,90,0.0,0.0,50,0.00,,,0.00,WUHU21623XXSP,2013-07-25 16:56:00,
2013-07-25 10:02:00,73.6,53.6,30.20,West,270,0.0,0.0,49,0.00,,,0.00,WUHU21623XXSP,2013-07-25 17:02:00,
2013-07-25 10:07:00,73.9,53.3,30.20,West,270,0.0,0.0,49,0.00,,,0.00,WUHU21623XXSP,2013-07-25 17:07:00,
2013-07-25 10:12:00,74.5,52.3,30.20,North,0,0.0,0.0,46,0.00,,,0.00,WUHU21623XXSP,2013-07-25 17:12:00,
2013-07-25 10:19:00,75.0,52.8,30.20,SW,225,0.0,0.0,46,0.00,,,0.00,WUHU21623XXSP,2013-07-25 17:19:00,
2013-07-25 10:24:00,75.4,52.8,30.20,NNW,337,0.0,0.0,45,0.00,,,0.00,WUHU21623XXSP,2013-07-25 17:24:00,
2013-07-25 10:32:00,76.3,52.7,30.20,SE,135,0.0,0.0,44,0.00,,,0.00,WUHU21623XXSP,2013-07-25 17:32:00,
2013-07-25 10:37:00,76.8,52.9,30.20,SE,135,0.0,0.0,44,0.00,,,0.00,WUHU21623XXSP,2013-07-25 17:37:00,
2013-07-25 10:42:00,77.4,53.7,30.21,SSE,157,0.0,0.0,44,0.00,,,0.00,WUHU21623XXSP,2013-07-25 17:42:00,
2013-07-25 10:47:00,77.7,54.0,30.20,SSE,157,0.0,0.0,44,0.00,,,0.00,WUHU21623XXSP,2013-07-25 17:47:00,
2013-07-25 10:52:00,77.9,54.2,30.20,WNW,292,0.0,0.0,44,0.00,,,0.00,WUHU21623XXSP,2013-07-25 17:52:00,
2013-07-25 10:57:00,78.4,53.4,30.20,SE,135,0.0,0.0,42,0.00,,,0.00,WUHU21623XXSP,2013-07-25 17:57:00,
2013-07-25 11:02:00,78.6,53.6,30.19,South,180,0.0,0.0,42,0.00,,,0.00,WUHU21623XXSP,2013-07-25 18:02:00,
2013-07-25 11:08:00,79.3,53.6,30.20,NW,315,0.0,0.0,41,0.00,,,0.00,WUHU21623XXSP,2013-07-25 18:08:00,
2013-07-25 11:14:00,79.9,53.5,30.19,WNW,292,0.0,0.0,40,0.00,,,0.00,WUHU21623XXSP,2013-07-25 18:14:00,
2013-07-25 11:19:00,80.2,53.0,30.19,NNW,337,0.0,0.0,39,0.00,,,0.00,WUHU21623XXSP,2013-07-25 18:19:00,
2013-07-25 11:25:00,81.1,53.8,30.19,SE,135,0.0,0.0,39,0.00,,,0.00,WUHU21623XXSP,2013-07-25 18:25:00,
2013-07-25 11:30:00,81.7,54.3,30.19,ESE,112,0.0,0.0,39,0.00,,,0.00,WUHU21623XXSP,2013-07-25 18:30:00,
2013-07-25 11:36:00,82.6,55.1,30.19,WSW,247,0.0,0.0,39,0.00,,,0.00,WUHU21623XXSP,2013-07-25 18:36:00,
2013-07-25 11:41:00,82.9,53.9,30.19,North,0,0.0,0.0,37,0.00,,,0.00,WUHU21623XXSP,2013-07-25 18:41:00,
2013-07-25 11:46:00,82.9,53.9,30.19,North,0,0.0,0.0,37,0.00,,,0.00,WUHU21623XXSP,2013-07-25 18:46:00,
2013-07-25 11:51:00,83.8,53.1,30.19,WNW,292,3.6,3.6,35,0.00,,,0.00,WUHU21623XXSP,2013-07-25 18:51:00,
2013-07-25 11:56:00,84.4,52.8,30.19,WNW,292,3.6,3.6,35,0.00,,,0.00,WUHU21623XXSP,2013-07-25 18:56:00,
2013-07-25 12:01:00,85.6,53.1,30.19,WNW,292,0.0,3.6,33,0.00,,,0.00,WUHU21623XXSP,2013-07-25 19:01:00,
2013-07-25 12:06:00,86.2,53.6,30.19,WNW,292,1.8,1.8,33,0.00,,,0.00,WUHU21623XXSP,2013-07-25 19:06:00,
2013-07-25 12:11:00,86.5,53.1,30.19,NW,315,0.0,1.8,32,0.00,,,0.00,WUHU21623XXSP,2013-07-25 19:11:00,
2013-07-25 12:18:00,87.4,54.6,30.18,West,270,0.0,0.0,33,0.00,,,0.00,WUHU21623XXSP,2013-07-25 19:18:00,
2013-07-25 12:29:00,88.0,55.1,30.18,WNW,292,0.0,0.0,33,0.00,,,0.00,WUHU21623XXSP,2013-07-25 19:29:00,
2013-07-25 12:38:00,88.7,53.3,30.18,WNW,292,3.8,3.8,30,0.00,,,0.00,WUHU21623XXSP,2013-07-25 19:38:00,
2013-07-25 12:44:00,89.4,54.0,30.18,SW,225,1.1,3.8,30,0.00,,,0.00,WUHU21623XXSP,2013-07-25 19:44:00,
2013-07-25 12:49:00,89.6,54.8,30.18,NNE,22,0.0,1.1,31,0.00,,,0.00,WUHU21623XXSP,2013-07-25 19:49:00,
2013-07-25 12:55:00,90.1,52.4,30.17,NNW,337,3.8,3.8,28,0.00,,,0.00,WUHU21623XXSP,2013-07-25 19:55:00,
2013-07-25 13:00:00,90.3,51.5,30.17,WNW,292,5.1,5.1,27,0.00,,,0.00,WUHU21623XXSP,2013-07-25 20:00:00,
2013-07-25 13:06:00,91.0,53.1,30.17,NW,315,4.9,5.1,28,0.00,,,0.00,WUHU21623XXSP,2013-07-25 20:06:00,
2013-07-25 13:11:00,91.2,53.4,30.17,NW,315,0.0,4.9,28,0.00,,,0.00,WUHU21623XXSP,2013-07-25 20:11:00,
2013-07-25 13:16:00,91.9,52.9,30.17,NW,315,5.4,5.4,27,0.00,,,0.00,WUHU21623XXSP,2013-07-25 20:16:00,
2013-07-25 13:21:00,92.5,53.3,30.17,NW,315,7.4,7.4,27,0.00,,,0.00,WUHU21623XXSP,2013-07-25 20:21:00,
2013-07-25 13:26:00,92.5,53.3,30.17,NW,315,7.4,7.4,27,0.00,,,0.00,WUHU21623XXSP,2013-07-25 20:26:00,
2013-07-25 13:31:00,93.0,51.6,30.17,NW,315,9.2,9.2,25,0.00,,,0.00,WUHU21623XXSP,2013-07-25 20:31:00,
2013-07-25 13:36:00,93.0,51.6,30.17,NW,315,10.1,10.1,25,0.00,,,0.00,WUHU21623XXSP,2013-07-25 20:36:00,
2013-07-25 13:42:00,92.8,51.4,30.17,West,270,4.7,10.1,25,0.00,,,0.00,WUHU21623XXSP,2013-07-25 20:42:00,
2013-07-25 13:47:00,92.5,51.1,30.17,WNW,292,1.8,4.7,25,0.00,,,0.00,WUHU21623XXSP,2013-07-25 20:47:00,
2013-07-25 13:52:00,91.9,50.7,30.17,WNW,292,1.3,1.8,25,0.00,,,0.00,WUHU21623XXSP,2013-07-25 20:52:00,
2013-07-25 13:57:00,91.8,50.6,30.17,NW,315,3.6,3.6,25,0.00,,,0.00,WUHU21623XXSP,2013-07-25 20:57:00,
2013-07-25 14:02:00,91.2,51.2,30.18,NW,315,0.0,3.6,26,0.00,,,0.00,WUHU21623XXSP,2013-07-25 21:02:00,
2013-07-25 14:18:00,89.4,51.8,30.18,SE,135,0.0,0.0,28,0.00,,,0.00,WUHU21623XXSP,2013-07-25 21:18:00,
2013-07-25 14:27:00,88.5,51.0,30.17,WNW,292,7.2,7.2,28,0.00,,,0.00,WUHU21623XXSP,2013-07-25 21:27:00,
2013-07-25 14:32:00,88.0,51.6,30.17,North,0,4.7,7.2,29,0.00,,,0.00,WUHU21623XXSP,2013-07-25 21:32:00,
2013-07-25 14:38:00,86.2,49.5,30.17,NNW,337,9.8,9.8,29,0.00,,,0.00,WUHU21623XXSP,2013-07-25 21:38:00,
2013-07-25 14:44:00,85.3,49.4,30.18,WNW,292,6.7,9.8,29,0.00,,,0.00,WUHU21623XXSP,2013-07-25 21:44:00,
2013-07-25 14:50:00,84.6,48.7,30.18,West,270,0.0,6.7,29,0.00,,,0.00,WUHU21623XXSP,2013-07-25 21:50:00,
2013-07-25 14:55:00,84.2,49.5,30.18,NNW,337,0.0,0.0,30,0.00,,,0.00,WUHU21623XXSP,2013-07-25 21:55:00,
2013-07-25 15:01:00,83.8,49.1,30.19,NW,315,1.1,1.1,30,0.00,,,0.00,WUHU21623XXSP,2013-07-25 22:01:00,
2013-07-25 15:10:00,83.1,48.5,30.19,WSW,247,0.0,1.1,30,0.00,,,0.00,WUHU21623XXSP,2013-07-25 22:10:00,
2013-07-25 15:15:00,82.9,48.3,30.19,WNW,292,0.0,0.0,30,0.00,,,0.00,WUHU21623XXSP,2013-07-25 22:15:00,
2013-07-25 15:20:00,82.4,48.6,30.19,SSE,157,3.8,3.8,31,0.00,,,0.00,WUHU21623XXSP,2013-07-25 22:20:00,
2013-07-25 15:28:00,82.0,48.3,30.19,South,180,5.4,5.4,31,0.00,,,0.00,WUHU21623XXSP,2013-07-25 22:28:00,
2013-07-25 15:33:00,81.3,49.5,30.19,South,180,1.6,5.4,32,0.00,,,0.00,WUHU21623XXSP,2013-07-25 22:33:00,
2013-07-25 15:38:00,81.3,48.5,30.19,NW,315,0.0,1.6,32,0.00,,,0.00,WUHU21623XXSP,2013-07-25 22:38:00,
2013-07-25 15:44:00,81.3,50.9,30.19,NW,315,0.9,1.6,35,0.00,,,0.00,WUHU21623XXSP,2013-07-25 22:44:00,
2013-07-25 15:49:00,81.7,52.0,30.18,WNW,292,0.0,1.6,36,0.00,,,0.00,WUHU21623XXSP,2013-07-25 22:49:00,
2013-07-25 15:54:00,82.0,52.3,30.18,NNW,337,0.0,0.0,36,0.00,,,0.00,WUHU21623XXSP,2013-07-25 22:54:00,
2013-07-25 15:59:00,82.2,51.6,30.19,WNW,292,0.0,0.0,35,0.00,,,0.00,WUHU21623XXSP,2013-07-25 22:59:00,
2013-07-25 16:04:00,82.2,52.4,30.19,WNW,292,0.0,0.0,36,0.00,,,0.00,WUHU21623XXSP,2013-07-25 23:04:00,
2013-07-25 16:09:00,82.6,53.5,30.21,SE,135,0.0,0.0,37,0.00,,,0.00,WUHU21623XXSP,2013-07-25 23:09:00,
2013-07-25 16:16:00,82.0,53.9,30.23,ESE,112,4.7,4.7,38,0.00,,,0.00,WUHU21623XXSP,2013-07-25 23:16:00,
2013-07-25 16:21:00,81.1,53.1,30.24,SSE,157,3.1,4.7,38,0.00,,,0.00,WUHU21623XXSP,2013-07-25 23:21:00,
2013-07-25 16:33:00,78.1,51.9,30.25,NE,45,6.9,6.9,40,0.00,,,0.00,WUHU21623XXSP,2013-07-25 23:33:00,
2013-07-25 16:38:00,77.5,52.2,30.25,SSE,157,1.3,6.9,41,0.00,,,0.00,WUHU21623XXSP,2013-07-25 23:38:00,
2013-07-25 16:46:00,76.1,51.3,30.26,SE,135,0.7,0.7,42,0.00,,,0.00,WUHU21623XXSP,2013-07-25 23:46:00,
2013-07-25 16:51:00,75.4,51.6,30.26,SSW,202,0.0,0.7,43,0.00,,,0.00,WUHU21623XXSP,2013-07-25 23:51:00,
2013-07-25 16:56:00,75.2,51.1,30.26,SSE,157,1.6,1.6,43,0.00,,,0.00,WUHU21623XXSP,2013-07-25 23:56:00,
2013-07-25 17:01:00,74.8,51.4,30.26,SSE,157,6.0,6.0,44,0.00,,,0.00,WUHU21623XXSP,2013-07-26 00:01:00,
2013-07-25 17:07:00,73.9,51.1,30.26,ENE,67,3.6,6.0,45,0.00,,,0.00,WUHU21623XXSP,2013-07-26 00:07:00,
2013-07-25 17:14:00,73.4,50.6,30.26,SE,135,0.0,3.6,45,0.00,,,0.00,WUHU21623XXSP,2013-07-26 00:14:00,
2013-07-25 17:19:00,73.2,50.5,30.27,SE,135,0.0,0.0,45,0.00,,,0.00,WUHU21623XXSP,2013-07-26 00:19:00,
2013-07-25 17:24:00,72.7,50.0,30.27,East,90,0.0,0.0,46,0.00,,,0.00,WUHU21623XXSP,2013-07-26 00:24:00,
2013-07-25 17:29:00,72.3,50.3,30.27,SSE,157,0.0,0.0,46,0.00,,,0.00,WUHU21623XXSP,2013-07-26 00:29:00,
2013-07-25 17:34:00,72.1,50.1,30.27,South,180,0.0,0.0,46,0.00,,,0.00,WUHU21623XXSP,2013-07-26 00:34:00,
2013-07-25 17:39:00,71.8,50.4,30.27,ENE,67,0.0,0.0,47,0.00,,,0.00,WUHU21623XXSP,2013-07-26 00:39:00,
2013-07-25 17:44:00,71.8,50.4,30.27,SSE,157,0.0,0.0,47,0.00,,,0.00,WUHU21623XXSP,2013-07-26 00:44:00,
2013-07-25 17:50:00,71.4,50.0,30.27,NE,45,0.0,0.0,47,0.00,,,0.00,WUHU21623XXSP,2013-07-26 00:50:00,
2013-07-25 17:55:00,71.2,49.9,30.27,ESE,112,0.0,0.0,48,0.00,,,0.00,WUHU21623XXSP,2013-07-26 00:55:00,
2013-07-25 18:03:00,70.7,50.0,30.26,ESE,112,0.0,0.0,48,0.00,,,0.00,WUHU21623XXSP,2013-07-26 01:03:00,
2013-07-25 18:08:00,70.5,50.4,30.26,SE,135,0.0,0.0,49,0.00,,,0.00,WUHU21623XXSP,2013-07-26 01:08:00,
2013-07-25 18:13:00,70.2,50.1,30.26,ESE,112,0.0,0.0,49,0.00,,,0.00,WUHU21623XXSP,2013-07-26 01:13:00,
2013-07-25 18:20:00,69.4,50.5,30.26,South,180,0.0,0.0,51,0.00,,,0.00,WUHU21623XXSP,2013-07-26 01:20:00,
2013-07-25 18:25:00,68.9,50.5,30.26,SE,135,0.0,0.0,52,0.00,,,0.00,WUHU21623XXSP,2013-07-26 01:25:00,
2013-07-25 18:37:00,68.2,50.8,30.26,SSE,157,0.0,0.0,54,0.00,,,0.00,WUHU21623XXSP,2013-07-26 01:37:00,
2013-07-25 18:42:00,68.2,50.8,30.25,South,180,0.0,0.0,54,0.00,,,0.00,WUHU21623XXSP,2013-07-26 01:42:00,
2013-07-25 18:47:00,68.2,51.3,30.25,SSE,157,0.0,0.0,55,0.00,,,0.00,WUHU21623XXSP,2013-07-26 01:47:00,
2013-07-25 18:52:00,68.0,51.2,30.26,ENE,67,0.0,0.0,55,0.00,,,0.00,WUHU21623XXSP,2013-07-26 01:52:00,
2013-07-25 18:57:00,67.8,51.0,30.25,ENE,67,0.0,0.0,56,0.00,,,0.00,WUHU21623XXSP,2013-07-26 01:57:00,
2013-07-25 19:05:00,67.6,51.8,30.24,East,90,0.0,0.0,57,0.00,,,0.00,WUHU21623XXSP,2013-07-26 02:05:00,
2013-07-25 19:12:00,67.6,51.8,30.25,West,270,0.0,0.0,57,0.00,,,0.00,WUHU21623XXSP,2013-07-26 02:12:00,
2013-07-25 19:17:00,67.6,52.3,30.25,SE,135,0.0,0.0,58,0.00,,,0.00,WUHU21623XXSP,2013-07-26 02:17:00,
2013-07-25 19:24:00,67.6,52.3,30.25,NE,45,0.0,0.0,58,0.00,,,0.00,WUHU21623XXSP,2013-07-26 02:24:00,
2013-07-25 19:29:00,67.8,53.0,30.25,NE,45,0.0,0.0,59,0.00,,,0.00,WUHU21623XXSP,2013-07-26 02:29:00,
2013-07-25 19:34:00,67.8,53.9,30.25,North,0,0.0,0.0,61,0.00,,,0.00,WUHU21623XXSP,2013-07-26 02:34:00,
2013-07-25 19:39:00,68.2,54.6,30.25,WNW,292,1.8,1.8,62,0.00,,,0.00,WUHU21623XXSP,2013-07-26 02:39:00,
2013-07-25 19:44:00,68.4,55.2,30.25,NW,315,1.6,1.8,63,0.00,,,0.00,WUHU21623XXSP,2013-07-26 02:44:00,
2013-07-25 19:49:00,68.4,55.8,30.25,NNW,337,1.6,1.6,64,0.00,,,0.00,WUHU21623XXSP,2013-07-26 02:49:00,
2013-07-25 19:54:00,68.2,55.5,30.25,WNW,292,0.0,1.6,64,0.00,,,0.00,WUHU21623XXSP,2013-07-26 02:54:00,
2013-07-25 20:00:00,68.0,54.5,30.24,SSE,157,0.0,0.0,62,0.00,,,0.00,WUHU21623XXSP,2013-07-26 03:00:00,
2013-07-25 20:05:00,67.8,54.3,30.25,North,0,0.0,0.0,62,0.00,,,0.00,WUHU21623XXSP,2013-07-26 03:05:00,
2013-07-25 20:10:00,67.8,54.3,30.25,SW,225,0.0,0.0,62,0.00,,,0.00,WUHU21623XXSP,2013-07-26 03:10:00,
2013-07-25 20:16:00,67.6,54.1,30.25,WNW,292,0.0,0.0,62,0.00,,,0.00,WUHU21623XXSP,2013-07-26 03:16:00,
2013-07-25 20:21:00,67.6,53.7,30.24,North,0,0.0,0.0,61,0.00,,,0.00,WUHU21623XXSP,2013-07-26 03:21:00,
2013-07-25 20:26:00,67.3,53.4,30.24,North,0,0.0,0.0,61,0.00,,,0.00,WUHU21623XXSP,2013-07-26 03:26:00,
2013-07-25 20:31:00,67.3,53.8,30.24,North,0,0.0,0.0,62,0.00,,,0.00,WUHU21623XXSP,2013-07-26 03:31:00,
2013-07-25 20:36:00,67.1,53.6,30.24,SSW,202,0.0,0.0,62,0.00,,,0.00,WUHU21623XXSP,2013-07-26 03:36:00,
2013-07-25 20:41:00,66.9,53.0,30.24,SSE,157,0.0,0.0,61,0.00,,,0.00,WUHU21623XXSP,2013-07-26 03:41:00,
2013-07-25 20:46:00,66.6,53.1,30.25,East,90,0.0,0.0,62,0.00,,,0.00,WUHU21623XXSP,2013-07-26 03:46:00,
2013-07-25 20:51:00,66.4,53.4,30.25,NNE,22,0.0,0.0,63,0.00,,,0.00,WUHU21623XXSP,2013-07-26 03:51:00,
2013-07-25 20:56:00,66.4,53.8,30.25,NNW,337,0.0,0.0,64,0.00,,,0.00,WUHU21623XXSP,2013-07-26 03:56:00,
2013-07-25 21:01:00,66.4,53.8,30.25,North,0,0.0,0.0,64,0.00,,,0.00,WUHU21623XXSP,2013-07-26 04:01:00,
2013-07-25 21:02:00,66.4,53.8,30.25,North,0,0.0,0.0,64,0.00,,,0.00,WUHU21623XXSP,2013-07-26 04:02:00,
2013-07-25 21:07:00,66.2,53.8,30.25,North,0,0.0,0.0,64,0.00,,,0.00,WUHU21623XXSP,2013-07-26 04:07:00,
2013-07-25 21:12:00,66.2,53.6,30.25,North,0,0.0,0.0,64,0.00,,,0.00,WUHU21623XXSP,2013-07-26 04:12:00,
2013-07-25 21:17:00,66.0,53.5,30.25,West,270,0.0,0.0,64,0.00,,,0.00,WUHU21623XXSP,2013-07-26 04:17:00,
2013-07-25 21:22:00,66.0,53.0,30.25,NW,315,0.0,0.0,63,0.00,,,0.00,WUHU21623XXSP,2013-07-26 04:22:00,
2013-07-25 21:27:00,65.8,53.3,30.25,NW,315,0.0,0.0,64,0.00,,,0.00,WUHU21623XXSP,2013-07-26 04:27:00,
2013-07-25 21:35:00,65.3,52.8,30.26,SSW,202,0.0,0.0,64,0.00,,,0.00,WUHU21623XXSP,2013-07-26 04:35:00,
2013-07-25 21:40:00,65.3,52.8,30.25,South,180,0.0,0.0,64,0.00,,,0.00,WUHU21623XXSP,2013-07-26 04:40:00,
2013-07-25 21:46:00,65.1,52.6,30.25,SSW,202,0.0,0.0,64,0.00,,,0.00,WUHU21623XXSP,2013-07-26 04:46:00,
2013-07-25 21:52:00,65.1,52.6,30.25,South,180,0.0,0.0,64,0.00,,,0.00,WUHU21623XXSP,2013-07-26 04:52:00,
2013-07-25 22:05:00,64.8,52.7,30.26,South,180,0.0,0.0,65,0.00,,,0.00,WUHU21623XXSP,2013-07-26 05:05:00,
2013-07-25 22:10:00,64.6,52.7,30.26,SSE,157,0.0,0.0,65,0.00,,,0.00,WUHU21623XXSP,2013-07-26 05:10:00,
2013-07-25 22:16:00,64.6,52.5,30.26,SSE,157,0.0,0.0,65,0.00,,,0.00,WUHU21623XXSP,2013-07-26 05:16:00,
2013-07-25 22:21:00,64.6,52.5,30.26,SSE,157,0.0,0.0,65,0.00,,,0.00,WUHU21623XXSP,2013-07-26 05:21:00,
2013-07-25 22:26:00,64.6,52.9,30.26,SSE,157,0.0,0.0,66,0.00,,,0.00,WUHU21623XXSP,2013-07-26 05:26:00,
2013-07-25 22:32:00,64.6,52.9,30.26,SSE,157,0.0,0.0,66,0.00,,,0.00,WUHU21623XXSP,2013-07-26 05:32:00,
2013-07-25 22:37:00,64.6,52.9,30.26,SSE,157,0.0,0.0,66,0.00,,,0.00,WUHU21623XXSP,2013-07-26 05:37:00,
2013-07-25 22:42:00,64.6,52.9,30.26,SSE,157,0.0,0.0,66,0.00,,,0.00,WUHU21623XXSP,2013-07-26 05:42:00,
2013-07-25 22:48:00,64.6,52.9,30.26,SSE,157,0.0,0.0,66,0.00,,,0.00,WUHU21623XXSP,2013-07-26 05:48:00,
2013-07-25 22:53:00,64.6,52.9,30.26,SSW,202,0.0,0.0,66,0.00,,,0.00,WUHU21623XXSP,2013-07-26 05:53:00,
2013-07-25 22:58:00,64.6,53.4,30.26,SSW,202,0.0,0.0,67,0.00,,,0.00,WUHU21623XXSP,2013-07-26 05:58:00,
2013-07-25 23:03:00,64.6,53.4,30.26,SW,225,0.0,0.0,67,0.00,,,0.00,WUHU21623XXSP,2013-07-26 06:03:00,
2013-07-25 23:09:00,64.6,53.4,30.26,SW,225,0.0,0.0,67,0.00,,,0.00,WUHU21623XXSP,2013-07-26 06:09:00,
2013-07-25 23:22:00,64.4,53.2,30.26,SW,225,0.0,0.0,67,0.00,,,0.00,WUHU21623XXSP,2013-07-26 06:22:00,
2013-07-25 23:28:00,64.2,53.0,30.27,West,270,0.0,0.0,67,0.00,,,0.00,WUHU21623XXSP,2013-07-26 06:28:00,
2013-07-25 23:35:00,64.2,53.0,30.26,West,270,0.0,0.0,67,0.00,,,0.00,WUHU21623XXSP,2013-07-26 06:35:00,
2013-07-25 23:40:00,64.2,53.0,30.27,West,270,0.0,0.0,67,0.00,,,0.00,WUHU21623XXSP,2013-07-26 06:40:00,
2013-07-25 23:45:00,64.0,53.3,30.27,WNW,292,0.0,0.0,68,0.00,,,0.00,WUHU21623XXSP,2013-07-26 06:45:00,
2013-07-25 23:50:00,64.0,53.3,30.27,WNW,292,0.0,0.0,68,0.00,,,0.00,WUHU21623XXSP,2013-07-26 06:50:00,
2013-07-25 23:55:00,64.0,53.3,30.27,West,270,0.0,0.0,68,0.00,,,0.00,WUHU21623XXSP,2013-07-26 06:55:00,